TimeEST,TemperatureF,Dew PointF,Humidity,Sea Level PressureIn,VisibilityMPH,Wind Direction,Wind SpeedMPH,Gust SpeedMPH,PrecipitationIn,Events,Conditions,WindDirDegrees,DateUTC
12:54 AM,5.0,1.0,84,30.28,6.0,WSW,9.2,-,0.00,,Mostly Cloudy,250,2014-02-10 05:54:00
1:54 AM,-0.0,-2.9,88,30.28,5.0,West,8.1,-,N/A,,Scattered Clouds,270,2014-02-10 06:54:00
2:54 AM,-0.9,-4.0,87,30.30,5.0,West,6.9,-,N/A,,Partly Cloudy,280,2014-02-10 07:54:00
3:54 AM,-0.0,-2.9,88,30.30,4.0,West,4.6,-,N/A,,Partly Cloudy,280,2014-02-10 08:54:00
4:54 AM,-2.0,-5.1,87,30.30,4.0,WSW,5.8,-,N/A,,Partly Cloudy,240,2014-02-10 09:54:00
5:54 AM,-2.9,-6.0,87,30.32,4.0,West,5.8,-,N/A,,Partly Cloudy,280,2014-02-10 10:54:00
6:54 AM,-5.1,-8.0,87,30.34,3.0,WSW,4.6,-,N/A,,Scattered Clouds,250,2014-02-10 11:54:00
7:44 AM,-7.6,-9.4,92,30.29,2.0,WSW,5.8,-,N/A,,Scattered Clouds,240,2014-02-10 12:44:00
7:54 AM,-6.0,-9.0,87,30.36,1.8,SW,5.8,-,N/A,,Scattered Clouds,230,2014-02-10 12:54:00
8:44 AM,-5.8,-9.4,84,30.31,2.5,West,5.8,-,N/A,,Scattered Clouds,280,2014-02-10 13:44:00
8:54 AM,-2.9,-6.0,87,30.38,3.0,WSW,5.8,-,N/A,,Scattered Clouds,240,2014-02-10 13:54:00
9:54 AM,1.9,-0.9,88,30.39,5.0,WSW,4.6,-,N/A,,Partly Cloudy,240,2014-02-10 14:54:00
10:54 AM,6.1,1.0,80,30.39,6.0,West,5.8,-,N/A,,Haze,270,2014-02-10 15:54:00
11:54 AM,8.1,1.9,76,30.40,7.0,SW,6.9,-,N/A,,Partly Cloudy,230,2014-02-10 16:54:00
12:54 PM,10.0,1.9,70,30.38,8.0,WSW,8.1,-,N/A,,Partly Cloudy,240,2014-02-10 17:54:00
1:54 PM,12.0,3.9,70,30.37,8.0,WSW,8.1,-,N/A,,Clear,250,2014-02-10 18:54:00
2:54 PM,12.9,3.9,67,30.37,8.0,WSW,10.4,-,N/A,,Clear,250,2014-02-10 19:54:00
3:54 PM,12.0,3.0,67,30.38,10.0,West,10.4,-,N/A,,Clear,260,2014-02-10 20:54:00
4:54 PM,10.0,1.9,70,30.39,10.0,West,9.2,-,N/A,,Clear,260,2014-02-10 21:54:00
5:54 PM,7.0,-0.9,70,30.40,9.0,WSW,8.1,-,N/A,,Clear,250,2014-02-10 22:54:00
6:54 PM,3.9,-2.0,76,30.43,8.0,West,9.2,-,N/A,,Clear,260,2014-02-10 23:54:00
7:54 PM,1.0,-4.0,79,30.45,9.0,West,8.1,-,N/A,,Clear,260,2014-02-11 00:54:00
8:54 PM,-0.9,-6.0,79,30.46,8.0,West,9.2,-,N/A,,Clear,260,2014-02-11 01:54:00
9:54 PM,-2.0,-6.0,83,30.46,8.0,West,5.8,-,N/A,,Clear,260,2014-02-11 02:54:00
10:54 PM,-4.0,-8.0,83,30.47,9.0,West,4.6,-,N/A,,Clear,260,2014-02-11 03:54:00
11:54 PM,-5.1,-9.0,83,30.47,8.0,WSW,6.9,-,N/A,,Clear,250,2014-02-11 04:54:00